Regional Weather Roundup
Issued by NWS Sioux Falls, SD

Home | Current Version | Previous Version | Graphics & Text | Print | Product List | Glossary On
Versions: 1 2 3 4 5 6 7 8 9 10 11 12 13 14 15 16 17 18 19 20 21 22 23 24 25 26 27 28 29 30 31 32 33 34 35 36 37 38 39 40 41 42 43 44 45 46 47 48 49 50
000
ASUS43 KFSD 142002
RWRFSD

WEATHER ROUNDUP FOR SE SOUTH DAKOTA/SW MINNESOTA/NW IOWA
NATIONAL WEATHER SERVICE SIOUX FALLS SD
200 PM CST THU DEC 14 2017

NOTE: "FAIR" INDICATES FEW OR NO CLOUDS BELOW 12,000 FEET WITH NO
SIGNIFICANT WEATHER AND OR OBSTRUCTIONS TO VISIBILITY.


SDZ038>040-050-052>070-142100-
SOUTHEAST SOUTH DAKOTA

CITY           SKY/WX    TMP DP  RH WIND       PRES   REMARKS
BROOKINGS      FLURRIES  31  28  89 W9        30.01F WCI  23
CHAMBERLAIN    FLURRIES  37  34  89 NW13G22   30.10R
HURON          CLOUDY    35  31  85 N15       30.06S WCI  25
MADISON        LGT RAIN  32  32 100 NW8       30.02S WCI  25
MITCHELL       CLOUDY    36  30  79 NW14      30.07S
SIOUX FALLS    FLURRIES  35  28  75 NW13      30.03S WCI  26
WINNER         CLOUDY    36  32  85 NW21      30.11S
YANKTON        CLOUDY    36  25  64 NW9       30.06F
$$

MNZ071-072-080-081-089-090-097-098-142100-
SOUTHWEST MINNESOTA

CITY           SKY/WX    TMP DP  RH WIND       PRES   REMARKS
FAIRMONT       CLOUDY    28  21  75 NW12      30.03S WCI  18
JACKSON        CLOUDY    32  21  64 MISG      30.01S
LUVERNE        CLOUDY    32  25  74 NW7       30.03S WCI  26
MARSHALL       CLOUDY    27  21  78 N9        30.05R WCI  18
MONTEVIDEO     CLOUDY    27  19  74 N9        30.05R WCI  17
PIPESTONE      CLOUDY    30  25  80 N3        30.00F
REDWOOD FALLS  CLOUDY    27  19  72 NW8       30.03F WCI  19
WINDOM           N/A     28  16  59 NW16      30.02S WCI  17
WORTHINGTON    FLURRIES  31  23  72 N10       30.02S WCI  22
$$

IAZ001>003-012>014-020>022-031-032-NEZ013-014-SDZ071-142100-
NORTHWEST IOWA

CITY           SKY/WX    TMP DP  RH WIND       PRES   REMARKS
CHEROKEE       CLOUDY    33  27  77 N5        30.04F WCI  29
DENISON        CLOUDY    34  25  69 N8        30.06S WCI  27
ESTHERVILLE    CLOUDY    29  22  75 NW15      30.01F WCI  18
LE MARS        CLOUDY    37  25  60 NW7       30.05S
ORANGE CITY    CLOUDY    36  28  75 NW7       30.04S
SHELDON        CLOUDY    34  27  75 NW6       30.02S WCI  29
SIOUX CITY     CLOUDY    39  26  59 NW7       30.05F
SPENCER        CLOUDY    32  23  69 NW15G21   30.02F WCI  22
STORM LAKE       N/A     32  23  69 NW10      30.03S WCI  24
$$

ABBREVIATIONS USED IN REMARKS
   TC - TEMPERATURE IN CELSIUS
  WCI - WIND CHILL INDEX
   HX - HEAT INDEX
  VSB - VISIBILITY





USA.gov is the U.S. government's official web portal to all federal, state and local government web resources and services.